• en France
  • Liste des pays
  • À 7 jours
  • Température de l'eau
  • Carte satellitaire
  • Carte météo
  • Widgets météo
  • user-avatar
    Se connecter

    Météo par heure à Dinajpur

    Ce jour, 17 Janvier, Mercredi

    Heure Température Précipitation Vent Pression Humidité
    00:00 +18°C° 0 mm 3 m/s 757 mmHg 55%
    01:00 +18°C° 0 mm 3 m/s 757 mmHg 56%
    02:00 +17°C° 0 mm 2 m/s 757 mmHg 57%
    03:00 +17°C° 0 mm 2 m/s 757 mmHg 58%
    04:00 +16°C° 0 mm 2 m/s 757 mmHg 59%
    05:00 +16°C° 0 mm 2 m/s 757 mmHg 60%
    06:00 +15°C° 0 mm 1 m/s 757 mmHg 61%
    07:00 +17°C° 0 mm 2 m/s 758 mmHg 58%
    08:00 +18°C° 0 mm 2 m/s 758 mmHg 54%
    09:00 +19°C° 0 mm 2 m/s 759 mmHg 51%
    10:00 +21°C° 0 mm 2 m/s 759 mmHg 46%
    11:00 +24°C° 0 mm 2 m/s 759 mmHg 41%
    12:00 +25°C° 0 mm 2 m/s 759 mmHg 36%
    13:00 +26°C° 0 mm 2 m/s 758 mmHg 34%
    14:00 +26°C° 0 mm 2 m/s 757 mmHg 31%
    15:00 +27°C° 0 mm 3 m/s 756 mmHg 29%
    16:00 +26°C° 0 mm 3 m/s 756 mmHg 30%
    17:00 +24°C° 0 mm 2 m/s 756 mmHg 32%
    18:00 +23°C° 0 mm 2 m/s 756 mmHg 34%
    19:00 +21°C° 0 mm 2 m/s 757 mmHg 36%
    20:00 +20°C° 0 mm 2 m/s 757 mmHg 38%
    21:00 +20°C° 0 mm 2 m/s 757 mmHg 40%
    22:00 +19°C° 0 mm 2 m/s 758 mmHg 41%
    23:00 +19°C° 0 mm 2 m/s 758 mmHg 43%

    Demain, 18 Janvier, Jeudi

    Heure Température Précipitation Vent Pression Humidité
    00:00 +18°C° 0 mm 2 m/s 758 mmHg 45%
    01:00 +17°C° 0 mm 2 m/s 757 mmHg 47%
    02:00 +17°C° 0 mm 2 m/s 757 mmHg 49%
    03:00 +16°C° 0 mm 2 m/s 757 mmHg 51%
    04:00 +16°C° 0 mm 2 m/s 757 mmHg 53%
    05:00 +15°C° 0 mm 2 m/s 757 mmHg 55%
    06:00 +15°C° 0 mm 2 m/s 757 mmHg 57%
    07:00 +16°C° 0 mm 2 m/s 758 mmHg 54%
    08:00 +17°C° 0 mm 2 m/s 758 mmHg 52%
    09:00 +18°C° 0 mm 2 m/s 759 mmHg 49%
    10:00 +20°C° 0 mm 2 m/s 759 mmHg 44%
    11:00 +23°C° 0 mm 2 m/s 759 mmHg 39%
    12:00 +25°C° 0 mm 2 m/s 758 mmHg 35%
    13:00 +26°C° 0 mm 2 m/s 758 mmHg 33%
    14:00 +26°C° 0 mm 2 m/s 757 mmHg 30%
    15:00 +27°C° 0 mm 2 m/s 756 mmHg 28%
    16:00 +26°C° 0 mm 2 m/s 756 mmHg 32%
    17:00 +25°C° 0 mm 2 m/s 756 mmHg 36%
    18:00 +23°C° 0 mm 2 m/s 756 mmHg 39%
    19:00 +23°C° 0 mm 2 m/s 757 mmHg 42%
    20:00 +21°C° 0 mm 2 m/s 757 mmHg 46%
    21:00 +20°C° 0 mm 2 m/s 758 mmHg 49%
    22:00 +20°C° 0 mm 2 m/s 758 mmHg 52%
    23:00 +19°C° 0 mm 2 m/s 758 mmHg 55%

    Après-demain, 19 Janvier, Vendredi

    Heure Température Précipitation Vent Pression Humidité
    00:00 +18°C° 0 mm 3 m/s 758 mmHg 58%
    01:00 +18°C° 0 mm 3 m/s 758 mmHg 60%
    02:00 +18°C° 0 mm 2 m/s 757 mmHg 62%
    03:00 +17°C° 0 mm 2 m/s 757 mmHg 64%
    04:00 +17°C° 0 mm 2 m/s 757 mmHg 65%
    05:00 +16°C° 0 mm 2 m/s 757 mmHg 67%
    06:00 +16°C° 0 mm 2 m/s 757 mmHg 68%
    07:00 +17°C° 0 mm 2 m/s 758 mmHg 64%
    08:00 +18°C° 0 mm 2 m/s 759 mmHg 60%
    09:00 +20°C° 0 mm 2 m/s 760 mmHg 56%
    10:00 +21°C° 0 mm 2 m/s 759 mmHg 50%
    11:00 +24°C° 0 mm 2 m/s 759 mmHg 45%
    12:00 +26°C° 0 mm 2 m/s 759 mmHg 39%
    13:00 +26°C° 0 mm 2 m/s 758 mmHg 36%
    14:00 +27°C° 0 mm 2 m/s 757 mmHg 34%
    15:00 +28°C° 0 mm 2 m/s 756 mmHg 31%
    16:00 +26°C° 0 mm 2 m/s 756 mmHg 34%
    17:00 +25°C° 0 mm 2 m/s 756 mmHg 36%
    18:00 +24°C° 0 mm 2 m/s 757 mmHg 39%
    19:00 +23°C° 0 mm 2 m/s 757 mmHg 41%
    20:00 +21°C° 0 mm 2 m/s 757 mmHg 43%
    21:00 +20°C° 0 mm 2 m/s 758 mmHg 45%
    22:00 +20°C° 0 mm 2 m/s 758 mmHg 47%
    23:00 +19°C° 0 mm 2 m/s 758 mmHg 49%

    20 Janvier, Samedi

    Heure Température Précipitation Vent Pression Humidité
    00:00 +19°C° 0 mm 2 m/s 758 mmHg 51%
    01:00 +18°C° 0 mm 2 m/s 757 mmHg 53%
    02:00 +18°C° 0 mm 2 m/s 757 mmHg 55%
    03:00 +17°C° 0 mm 2 m/s 756 mmHg 57%
    04:00 +17°C° 0 mm 2 m/s 756 mmHg 58%
    05:00 +16°C° 0 mm 2 m/s 756 mmHg 60%
    06:00 +16°C° 0 mm 2 m/s 756 mmHg 61%
    07:00 +17°C° 0 mm 2 m/s 757 mmHg 58%
    08:00 +18°C° 0 mm 2 m/s 758 mmHg 54%
    09:00 +19°C° 0 mm 2 m/s 758 mmHg 50%
    10:00 +21°C° 0 mm 2 m/s 758 mmHg 45%
    11:00 +24°C° 0 mm 1 m/s 758 mmHg 41%
    12:00 +26°C° 0 mm 1 m/s 757 mmHg 36%
    13:00 +26°C° 0 mm 2 m/s 757 mmHg 34%
    14:00 +27°C° 0 mm 2 m/s 756 mmHg 32%
    15:00 +27°C° 0 mm 2 m/s 755 mmHg 29%
    16:00 +26°C° 0 mm 2 m/s 755 mmHg 32%
    17:00 +25°C° 0 mm 2 m/s 755 mmHg 34%
    18:00 +24°C° 0 mm 2 m/s 755 mmHg 37%
    19:00 +23°C° 0 mm 2 m/s 756 mmHg 39%
    20:00 +21°C° 0 mm 2 m/s 756 mmHg 41%
    21:00 +20°C° 0 mm 2 m/s 757 mmHg 44%
    22:00 +20°C° 0 mm 2 m/s 757 mmHg 45%
    23:00 +19°C° 0 mm 2 m/s 757 mmHg 47%

    21 Janvier, Dimanche

    Heure Température Précipitation Vent Pression Humidité
    00:00 +19°C° 0 mm 2 m/s 756 mmHg 49%
    01:00 +18°C° 0 mm 2 m/s 756 mmHg 51%
    02:00 +17°C° 0 mm 2 m/s 756 mmHg 52%
    03:00 +17°C° 0 mm 2 m/s 756 mmHg 54%
    04:00 +16°C° 0 mm 1 m/s 756 mmHg 56%
    05:00 +16°C° 0 mm 1 m/s 756 mmHg 57%
    06:00 +16°C° 0 mm 1 m/s 756 mmHg 59%
    07:00 +18°C° 0 mm 1 m/s 757 mmHg 56%
    08:00 +19°C° 0 mm 1 m/s 758 mmHg 53%
    09:00 +21°C° 0 mm 1 m/s 758 mmHg 49%
    10:00 +22°C° 0 mm 1 m/s 758 mmHg 45%
    11:00 +24°C° 0 mm 1 m/s 758 mmHg 41%
    12:00 +26°C° 0 mm 1 m/s 757 mmHg 37%
    13:00 +27°C° 0 mm 1 m/s 757 mmHg 34%
    14:00 +27°C° 0 mm 1 m/s 756 mmHg 32%
    15:00 +28°C° 0 mm 1 m/s 755 mmHg 30%
    16:00 +27°C° 0 mm 1 m/s 755 mmHg 32%
    17:00 +25°C° 0 mm 2 m/s 755 mmHg 35%
    18:00 +24°C° 0 mm 2 m/s 755 mmHg 37%
    19:00 +23°C° 0 mm 2 m/s 756 mmHg 39%
    20:00 +23°C° 0 mm 2 m/s 756 mmHg 41%
    21:00 +21°C° 0 mm 2 m/s 756 mmHg 43%
    22:00 +20°C° 0 mm 2 m/s 756 mmHg 45%
    23:00 +20°C° 0 mm 2 m/s 756 mmHg 47%

    22 Janvier, Lundi

    Heure Température Précipitation Vent Pression Humidité
    00:00 +19°C° 0 mm 2 m/s 756 mmHg 49%
    01:00 +19°C° 0 mm 2 m/s 756 mmHg 50%
    02:00 +18°C° 0 mm 2 m/s 756 mmHg 52%
    03:00 +17°C° 0 mm 2 m/s 756 mmHg 54%
    04:00 +17°C° 0 mm 2 m/s 756 mmHg 55%
    05:00 +17°C° 0 mm 2 m/s 756 mmHg 56%
    06:00 +16°C° 0 mm 2 m/s 756 mmHg 57%
    07:00 +18°C° 0 mm 2 m/s 756 mmHg 54%
    08:00 +19°C° 0 mm 2 m/s 757 mmHg 51%
    09:00 +20°C° 0 mm 2 m/s 757 mmHg 47%
    10:00 +23°C° 0 mm 2 m/s 757 mmHg 44%
    11:00 +25°C° 0 mm 2 m/s 757 mmHg 40%
    12:00 +26°C° 0 mm 2 m/s 756 mmHg 36%
    13:00 +27°C° 0 mm 2 m/s 756 mmHg 34%
    14:00 +28°C° 0 mm 2 m/s 755 mmHg 32%
    15:00 +28°C° 0 mm 2 m/s 754 mmHg 30%
    16:00 +27°C° 0 mm 1 m/s 754 mmHg 32%
    17:00 +26°C° 0 mm 1 m/s 754 mmHg 34%
    18:00 +25°C° 0 mm 1 m/s 754 mmHg 36%
    19:00 +24°C° 0 mm 1 m/s 755 mmHg 38%
    20:00 +23°C° 0 mm 2 m/s 755 mmHg 40%
    21:00 +21°C° 0 mm 2 m/s 756 mmHg 41%
    22:00 +21°C° 0 mm 2 m/s 756 mmHg 43%
    23:00 +20°C° 0 mm 2 m/s 756 mmHg 44%
    Voir plus